Regional Weather Roundup
Issued by NWS

Home | Current Version | Previous Version | Text Only | Print | Product List | Glossary On
Versions: 1 2 3 4 5 6 7 8 9 10 11 12 13 14 15 16 17 18 19 20 21 22 23 24 25 26 27 28 29 30 31 32 33 34 35 36 37 38 39 40 41 42 43 44 45 46 47 48 49 50
000
ASUS45 KBOU 191610
RWRCO

WEATHER ROUNDUP FOR COLORADO
NATIONAL WEATHER SERVICE DENVER/BOULDER CO
900 AM MST FRI JAN 19 2018

NOTE: "FAIR" INDICATES FEW OR NO CLOUDS BELOW 12000 FEET WITH NO
SIGNIFICANT WEATHER AND/OR OBSTRUCTIONS TO VISIBILITY.

COZ001>005-013-030-031-191700-
...NORTHWEST COLORADO...

CITY           SKY/WX    TMP DP  RH WIND       PRES   REMARKS
CRAIG          FAIR      22  14  71 VRB3      29.95F
HAYDEN         FAIR     N/A N/A N/A E14       29.97S
MEEKER         FAIR      35  20  54 VRB3      29.97F
RABBIT EARS PA FAIR      30  19  64 W8        30.02R WCI  23
STEAMBOAT SPGS FAIR      16  11  82 CALM      29.98R
WALDEN         FAIR      34  14  44 S13       29.95R WCI  25
$$

COZ006>008-011-191700-
...WEST CENTRAL VALLEYS...

CITY           SKY/WX    TMP DP  RH WIND       PRES   REMARKS
GRAND JUNCTION FAIR      29  21  72 CALM      30.04R
MONTROSE       FAIR      28  17  63 SE6       30.07R WCI  22
EAGLE          FAIR      16  11  80 CALM      30.08S
RIFLE          FAIR      25  19  78 CALM      30.06S
DELTA          FAIR      31  18  58 CALM      30.07R
NUCLA          FAIR      32  16  51 SE6       30.12S WCI  26
$$

COZ017>023-064>068-191700-
...SOUTHWEST COLORADO...

CITY           SKY/WX    TMP DP  RH WIND       PRES   REMARKS
DURANGO        FAIR      24  18  77 CALM      30.14R
CORTEZ         FAIR      29  21  72 CALM      30.12S
PAGOSA SPRINGS FAIR      30  18  60 CALM      30.16R
TELLURIDE      FAIR      37  12  36 S9        30.14S
WOLF CREEK PAS FAIR      27   9  46 SW14      30.25R WCI  15
$$

COZ009-010-012-014-032>034-037-058>063-191700-
...CENTRAL COLORADO...

CITY           SKY/WX    TMP DP  RH WIND       PRES   REMARKS
ASPEN          FAIR      26  17  68 SE6       30.01S WCI  19
BUENA VISTA    FAIR      30  13  48 CALM      30.02F
COPPER MTN     NOT AVBL
BERTHOUD PASS  FAIR      28  18  64 W43G67    30.04R WCI  10
COTTONWOOD PAS   N/A     43   7  22 NW7       30.06R
GUNNISON       FAIR       7   3  84 CALM      30.18S
KREMMLING      FAIR      16  10  79 CALM      30.03S
LEADVILLE      FAIR      33  10  38 NE8       30.04S WCI  26
MONARCH PASS   FAIR      27   3  36 W36G41    30.23F WCI   9
SALIDA         FAIR      49   6  17 SW12G18   30.08S
SUNLIGHT       FAIR      28   9  43 SW10G26   30.13R WCI  19
WILKERSON PASS FAIR      30   9  40 SW21G26   30.09S WCI  17
$$

COZ069>075-191700-
...SAN LUIS VALLEY/SANGRE DE CRISTO MOUNTAINS...

CITY           SKY/WX    TMP DP  RH WIND       PRES   REMARKS
ALAMOSA        FAIR      19   2  47 CALM      30.12S
DEL NORTE      FAIR      26   6  42 W6        30.13R WCI  20
LA VETA PASS   FAIR      30   5  34 SW26        N/A  WCI  16
SAGUACHE       FAIR      27   9  46 CALM      30.13R
$$

COZ035-036-038>040-191700-
...NORTHERN COLORADO FRONT RANGE...

CITY           SKY/WX    TMP DP  RH WIND       PRES   REMARKS
DENVER INTL AP PTSUNNY   52  15  23 SW14      29.80S
DMNS CITY PARK NOT AVBL
AURORA         PTSUNNY   51  16  24 S15       29.81S
FRONT RANGE AP PTSUNNY   46  18  31 W7        29.82R
ERIE MUNI ARPT FAIR      43  20  39 S3        29.83S
BOULDER MUN AP FAIR      63  16  16 SW18G25   29.78S
CENTENNIAL     PTSUNNY   55  14  19 SW18      29.81F
BROOMFIELD     PTSUNNY   50  18  27 SW3       29.81R
FORT COLLINS   FAIR      56  19  23 W17       29.77S
LONGMONT       FAIR      57  18  21 SW3       29.79S
$$

COZ041-046-047-076>085-087-088-191700-
...PIKES PEAK/PALMER DIVIDE AND SOUTHERN FOOTHILLS...

CITY           SKY/WX    TMP DP  RH WIND       PRES   REMARKS
COLO. SPRINGS  PTSUNNY   49  12  22 N3        29.87S
A. F. ACADEMY  FAIR      55  10  16 W17G25    29.86F
SCHRIEVER AFB  NOT AVBL
CHEYENNE MTN   NOT AVBL
ELLICOTT         N/A    N/A N/A N/A SW7       29.85S
FALCON         FAIR      55   9  15 W12G18    29.91R
FORT CARSON    SUNNY     46  14  27 N6        29.85S
LIMON          FAIR      39  20  46 N5        29.82S
MONUMENT HILL  FAIR      48  16  27 SW15      29.91R
CANON CITY     FAIR      52  19  28 W13G18    29.87S
WALSENBURG     FAIR      55   9  15 W10       29.94R
TRINIDAD       FAIR      42  16  34 NW9       29.91S
$$

COZ042>045-048>051-090-091-191700-
...NORTHEAST COLORADO...

CITY           SKY/WX    TMP DP  RH WIND       PRES   REMARKS
GREELEY ARPT   FAIR      28  22  78 CALM      29.79R
AKRON          FAIR      44  15  31 W13       29.76S
BURLINGTON     FAIR      47  14  26 SW14      29.77F
WRAY           FAIR      41  16  36 W12       29.75S
YUMA           FAIR      36  18  48 CALM      29.73F
STERLING       FAIR      30  21  69 S5        29.76R WCI  25
HOLYOKE        FAIR      37  27  65 W3        29.73S
FORT MORGAN    FAIR      32  19  57 W10       29.78S WCI  24
$$

COZ086-089-092>099-191700-
...SOUTHEAST COLORADO...

CITY           SKY/WX    TMP DP  RH WIND       PRES   REMARKS
PUEBLO         FAIR      41  19  41 W8        29.84S
LA JUNTA       FAIR      35  18  49 NW7       29.85R WCI  29
LAMAR          FAIR      38  16  40 W8        29.82F
SPRINGFIELD      N/A     52  11  19 SW10      29.83F
$$



USA.gov is the U.S. government's official web portal to all federal, state and local government web resources and services.